TimeMDT,TemperatureF,Dew PointF,Humidity,Sea Level PressureIn,VisibilityMPH,Wind Direction,Wind SpeedMPH,Gust SpeedMPH,PrecipitationIn,Events,Conditions,WindDirDegrees,DateUTC
12:52 AM,66.0,53.1,63,29.98,10.0,SSE,5.8,-,N/A,,Clear,160,2013-08-29 06:52:00
1:52 AM,66.0,53.1,63,29.98,10.0,WSW,6.9,-,N/A,,Clear,240,2013-08-29 07:52:00
2:52 AM,63.0,52.0,67,29.98,10.0,SSE,8.1,-,N/A,,Clear,150,2013-08-29 08:52:00
3:52 AM,61.0,52.0,72,29.99,10.0,South,3.5,-,N/A,,Clear,190,2013-08-29 09:52:00
4:52 AM,59.0,48.0,67,29.99,10.0,Calm,Calm,-,N/A,,Clear,0,2013-08-29 10:52:00
5:52 AM,60.1,51.1,72,29.99,10.0,South,6.9,-,N/A,,Clear,190,2013-08-29 11:52:00
6:52 AM,59.0,52.0,78,30.01,10.0,SSW,3.5,-,N/A,,Clear,200,2013-08-29 12:52:00
7:52 AM,63.0,52.0,67,30.04,10.0,SSW,11.5,-,N/A,,Clear,210,2013-08-29 13:52:00
8:52 AM,68.0,52.0,56,30.04,10.0,SSW,11.5,-,N/A,,Clear,200,2013-08-29 14:52:00
10:52 AM,81.0,50.0,34,30.03,10.0,South,10.4,-,N/A,,Clear,190,2013-08-29 16:52:00
11:52 AM,84.9,48.9,29,30.02,10.0,South,10.4,-,N/A,,Clear,170,2013-08-29 17:52:00
12:52 PM,86.0,45.0,24,30.02,10.0,South,8.1,-,N/A,,Clear,180,2013-08-29 18:52:00
1:52 PM,88.0,43.0,21,30.00,10.0,South,6.9,-,N/A,,Clear,170,2013-08-29 19:52:00
2:52 PM,90.0,41.0,18,29.98,10.0,South,5.8,16.1,N/A,,Clear,190,2013-08-29 20:52:00
3:52 PM,91.0,41.0,17,29.96,10.0,Variable,3.5,-,N/A,,Clear,0,2013-08-29 21:52:00
4:52 PM,91.9,41.0,17,29.95,10.0,SSE,12.7,-,N/A,,Partly Cloudy,150,2013-08-29 22:52:00
5:52 PM,91.0,41.0,17,29.93,10.0,South,9.2,-,N/A,,Clear,170,2013-08-29 23:52:00
6:52 PM,90.0,41.0,18,29.94,10.0,Calm,Calm,-,N/A,,Clear,0,2013-08-30 00:52:00
7:52 PM,84.9,44.1,24,29.95,10.0,WNW,5.8,-,N/A,,Clear,290,2013-08-30 01:52:00
8:52 PM,79.0,45.0,30,29.97,10.0,WNW,6.9,-,N/A,,Clear,300,2013-08-30 02:52:00
9:52 PM,77.0,46.0,33,29.98,10.0,South,5.8,-,N/A,,Clear,190,2013-08-30 03:52:00
10:52 PM,77.0,46.0,33,29.96,10.0,SW,5.8,-,N/A,,Clear,230,2013-08-30 04:52:00
11:52 PM,75.0,44.1,33,29.97,10.0,SSW,8.1,-,N/A,,Clear,200,2013-08-30 05:52:00